This is the latest recevied weather packets stored in our database for station/object 9A3SWO. If no packets are shown the sender has not sent any weather packets the latest 10 day(s).
| Time | Temp. | Humidity | Pressure | Rain* | Wind** | Luminosity | Snow |
|---|---|---|---|---|---|---|---|
| 1787774295 | 26.11° C | 53% | 1018.3 hPa | - | - | - | - |
| 1787773696 | 26.11° C | 53% | 1018 hPa | - | - | - | - |
| 1787773095 | 26.11° C | 53% | 1018 hPa | - | - | - | - |
| 1787772495 | 26.11° C | 53% | 1017.9 hPa | - | - | - | - |
| 1787771895 | 26.11° C | 52% | 1017.9 hPa | - | - | - | - |
| 1787771295 | 26.11° C | 52% | 1017.9 hPa | - | - | - | - |
| 1787770695 | 26.67° C | 52% | 1017.8 hPa | - | - | - | - |
| 1787770095 | 26.67° C | 51% | 1017.7 hPa | - | - | - | - |
| 1787769495 | 26.67° C | 50% | 1017.6 hPa | - | - | - | - |
| 1787768895 | 27.22° C | 49% | 1017.5 hPa | - | - | - | - |
| 1787768294 | 27.22° C | 49% | 1017.5 hPa | - | - | - | - |
| 1787767694 | 27.78° C | 48% | 1017.4 hPa | - | - | - | - |
| 1787767094 | 27.78° C | 47% | 1017.4 hPa | - | - | - | - |
| 1787766494 | 28.33° C | 46% | 1017.3 hPa | - | - | - | - |
| 1787765895 | 28.89° C | 44% | 1017.1 hPa | - | - | - | - |
| 1787765294 | 29.44° C | 43% | 1016.9 hPa | - | - | - | - |
| 1787764694 | 30° C | 42% | 1017 hPa | - | - | - | - |
| 1787764095 | 30.56° C | 43% | 1016.8 hPa | - | - | - | - |
| 1787763494 | 30.56° C | 43% | 1016.7 hPa | - | - | - | - |
| 1787762894 | 30.56° C | 41% | 1016.8 hPa | - | - | - | - |
| 1787762294 | 30° C | 41% | 1016.9 hPa | - | - | - | - |
| 1787761704 | 30° C | 41% | 1016.7 hPa | - | - | - | - |
| 1787761095 | 30° C | 41% | 1016.7 hPa | - | - | - | - |
| 1787760494 | 29.44° C | 42% | 1016.8 hPa | - | - | - | - |
| 1787759894 | 29.44° C | 42% | 1016.8 hPa | - | - | - | - |
* Rain since midnight (hover to see other rain measurements)
** Current wind speed in m/s (hover to see current wind gust speed)